Change the Weather History Date:

Sunday, October 28, 2012

  Actual Average Record
Temperature  
Mean Temperature 55 °F 43 °F  
Max Temperature 61 °F 54 °F 76 °F (1971)
Min Temperature 49 °F 32 °F 18 °F (1974)
Degree Days  
Heating Degree Days 10 22  
Month to date heating degree days 391 501  
Since 1 July heating degree days 620 786  
Cooling Degree Days 0 0  
Month to date cooling degree days 0 0  
Year to date cooling degree days 533 351  
Growing Degree Days 6 (Base 50)    
Moisture  
Dew Point 46 °F    
Average Humidity 72    
Maximum Humidity 96    
Minimum Humidity 47    
Precipitation  
Precipitation 0.00 in 0.11 in 1.83 in (2006)
Month to date precipitation 4.23 3.17  
Year to date precipitation 30.26 32.36  
Sea Level Pressure  
Sea Level Pressure 29.94 in    
Wind  
Wind Speed 7 mph (NNE)    
Max Wind Speed 14 mph    
Max Gust Speed 17 mph    
Visibility 10 miles    
Events      
T = Trace of Precipitation, MM = Missing Value Source: NWS Daily Summary

Daily Weather History Graph

Daily Weather History Graph

Search for Another Location

Airport or City:

Trip Planner

Search our weather history database for the weather conditions in past years. The results will help you decide how hot, cold, wet, or windy it might be!

Date:

Astronomy

Oct. 28, 2012 Rise Set
Actual Time 7:25 AM EDT 5:50 PM EDT
Civil Twilight 6:55 AM EDT 6:20 PM EDT
Nautical Twilight 6:22 AM EDT 6:53 PM EDT
Astronomical Twilight 5:48 AM EDT 7:26 PM EDT
Moon 5:07 PM EDT (10/28) 6:14 AM EDT (10/28)
Length of Visible Light 11h 24m
Length of Day
10h 25m
Waxing Gibbous, 99% of the Moon is Illuminated
Oct 28
Waxing Gibbous
Oct 29
Full
Nov 6
Last Quarter
Nov 13
New
Nov 20
First Quarter

Hourly Weather History & Observations

Time (EDT) Temp. Dew Point Humidity Pressure Visibility Wind Dir Wind Speed Gust Speed Precip Events Conditions
12:53 AM 51.1 °F 50.0 °F 96% 30.00 in 10.0 mi Calm Calm - N/A   Clear
1:53 AM 50.0 °F 48.9 °F 96% 29.99 in 10.0 mi Calm Calm - N/A   Clear
2:53 AM 54.0 °F 52.0 °F 93% 29.98 in 10.0 mi NNW 3.5 mph - N/A   Clear
3:53 AM 54.0 °F 52.0 °F 93% 29.97 in 10.0 mi North 5.8 mph - N/A   Scattered Clouds
4:53 AM 54.0 °F 52.0 °F 93% 29.97 in 10.0 mi North 8.1 mph - N/A   Mostly Cloudy
5:53 AM 54.0 °F 52.0 °F 93% 29.97 in 10.0 mi North 4.6 mph - N/A   Overcast
6:53 AM 54.0 °F 52.0 °F 93% 29.98 in 10.0 mi North 5.8 mph - N/A   Overcast
7:53 AM 54.0 °F 48.0 °F 80% 29.99 in 10.0 mi NNE 5.8 mph - N/A   Overcast
8:53 AM 54.0 °F 43.0 °F 66% 30.00 in 10.0 mi NNE 6.9 mph - N/A   Clear
9:53 AM 55.9 °F 37.9 °F 51% 30.00 in 10.0 mi NE 6.9 mph - N/A   Clear
10:53 AM 57.0 °F 37.9 °F 49% 29.99 in 10.0 mi NE 8.1 mph - N/A   Clear
11:53 AM 57.9 °F 39.9 °F 51% 29.98 in 10.0 mi NE 8.1 mph - N/A   Clear
12:53 PM 59.0 °F 39.2 °F 48% 29.94 in 10.0 mi NE 9.2 mph - N/A   Clear
1:53 PM 61.0 °F 41.0 °F 48% 29.93 in 10.0 mi NNE 12.7 mph - N/A   Clear
2:53 PM 60.1 °F 44.1 °F 55% 29.88 in 10.0 mi NE 9.2 mph - N/A   Clear
3:53 PM 60.1 °F 45.0 °F 57% 29.89 in 10.0 mi NE 6.9 mph - N/A   Clear
4:53 PM 59.0 °F 46.0 °F 62% 29.87 in 10.0 mi NE 6.9 mph - N/A   Clear
5:53 PM 57.0 °F 46.9 °F 69% 29.89 in 10.0 mi ENE 4.6 mph - N/A   Clear
6:53 PM 55.0 °F 48.0 °F 77% 29.89 in 10.0 mi NE 6.9 mph - N/A   Clear
7:53 PM 53.1 °F 48.9 °F 86% 29.90 in 8.0 mi ENE 4.6 mph - N/A   Clear
8:53 PM 52.0 °F 48.9 °F 89% 29.89 in 6.0 mi NE 3.5 mph - N/A   Clear
9:53 PM 50.0 °F 46.9 °F 89% 29.88 in 6.0 mi NNE 5.8 mph - N/A   Clear
10:53 PM 51.1 °F 48.0 °F 89% 29.86 in 7.0 mi NNE 8.1 mph - N/A   Clear
11:53 PM 52.0 °F 46.9 °F 83% 29.85 in 10.0 mi NE 10.4 mph - N/A   Clear